Tracking 20040 objects as of 19-Nov-2019
Live streaming from Space Station
objects crossing your sky now

COSMOS 2058 DEB

Track COSMOS 2058 DEB now!
10-day predictions


NORAD ID: 43343
Int'l Code: 1990-010C
Perigee: 540.8 km
Apogee: 546.5 km
Inclination: 82.5 °
Period: 95.4 minutes
Semi major axis: 6914 km
RCS: Unknown
Launch date: January 30, 1990
Source: Commonwealth of Independent States (former USSR) (CIS)
Launch site: PLESETSK MISSILE AND SPACE COMPLEX (PKMTR)

Note: This is SATELLITE DEBRIS
aabbcc
Your satellite tracking list
Your tracking list is empty




NASA's NSSDC Master Catalog

Two Line Element Set (TLE):
1 43343U 90010C   19322.82669074  .00005473  00000-0  33620-3 0  9992
2 43343  82.4666 105.7634 0004151 152.5290 207.6160 15.09895428155680
Source of the keplerian elements: AFSPC